Location: Peterborough
(44.3091°N, 78.3197°W)
Time: 05:34:03
(UTC-04:00)

Vanguard 2 - Pass Details

Date: 22 March 2023
Orbit: 552 x 2926 km, 32.9° (Epoch: 04 June)

Event Time Altitude Azimuth Distance (km) Brightness Sun altitude
Rises 10:14:34 0° 256° (WSW) 6,304 11.8 30.1°
Reaches altitude 10° 10:19:26 10° 252° (WSW) 4,988 11.4 30.8°
Maximum altitude 10:31:39 44° 187° (S) 2,206 10.6 32.6°
Drops below altitude 10° 10:39:19 10° 118° (ESE) 3,161 12.1 33.7°
Sets 10:41:43 0° 111° (ESE) 3,866 12.1 34.0°
